Overview Statistics Trail Chart Weather Telemetry Raw packets
 

This is the latest recevied weather packets stored in our database for station/object OH6GKW. If no packets are shown the sender has not sent any weather packets the latest 10 day(s).

<< 98 99 100 101 102 103 104 >>
Time Temp. Humidity Pressure Rain* Wind** Luminosity Snow
1787926117 19.44° C 64% 1020.4 hPa 0 mm - 25 W/m² -
1787925815 20° C 62% 1020.4 hPa 0 mm - 44 W/m² -
1787925532 20° C 62% 1020.5 hPa 0 mm - 69 W/m² -
1787925225 20° C 60% 1020.5 hPa 0 mm - 104 W/m² -
1787924916 20° C 58% 1020.5 hPa 0 mm - 120 W/m² -
1787924610 20.56° C 58% 1020.5 hPa 0 mm - 135 W/m² -
1787924322 21.11° C 57% 1020.5 hPa 0 mm - 498 W/m² -
1787924022 21.11° C 58% 1020.5 hPa 0 mm - 498 W/m² -
1787923711 21.11° C 58% 1020.6 hPa 0 mm - 510 W/m² -
1787923427 21.11° C 60% 1020.6 hPa 0 mm - 570 W/m² -
1787923118 20.56° C 58% 1020.6 hPa 0 mm - 623 W/m² -
1787922810 20.56° C 59% 1020.8 hPa 0 mm - 252 W/m² -
1787922529 20.56° C 59% 1020.8 hPa 0 mm - 259 W/m² -
1787922229 20° C 61% 1020.8 hPa 0 mm - 252 W/m² -
1787921921 20° C 60% 1020.9 hPa 0 mm - 201 W/m² -
1787921617 20.56° C 60% 1020.9 hPa 0 mm - 160 W/m² -
1787921309 20.56° C 59% 1020.9 hPa 0 mm - 208 W/m² -
1787921029 20.56° C 57% 1021 hPa 0 mm - 192 W/m² -
1787920723 21.11° C 60% 1021 hPa 0 mm - 648 W/m² -
1787920417 20.56° C 60% 1021 hPa 0 mm - 686 W/m² -
1787920128 20° C 61% 1021.3 hPa 0 mm - 709 W/m² -
1787919821 20° C 65% 1021.3 hPa 0 mm - 304 W/m² -
1787919509 19.44° C 62% 1021.3 hPa 0 mm - 197 W/m² -
1787919237 19.44° C 61% 1021.4 hPa 0 mm - 250 W/m² -
1787918929 20° C 60% 1021.4 hPa 0 mm - 234 W/m² -

* Rain since midnight (hover to see other rain measurements)
** Current wind speed in m/s (hover to see current wind gust speed)